N6GIW Weather Reports


Display with metric or nautical units.
time (UTC)temp
F
wind
direction
speed
MPH
gust
MPH
rain 1hr
in
rain 24hr
in
rain mn
in
humidity
%
barometer
mb
20260508190003 89 11 7.0 13.0 0.00 0.00 0.00 12 1022.9
20260508185504 89 41 6.0 12.0 0.00 0.00 0.00 12 1023.0
20260508185003 88 27 6.0 10.0 0.00 0.00 0.00 12 1023.1
20260508184503 88 6 8.0 12.0 0.00 0.00 0.00 12 1023.2
20260508183503 89 22 7.0 10.0 0.00 0.00 0.00 12 1023.2
20260508183003 88 14 5.0 12.0 0.00 0.00 0.00 12 1023.2
20260508182504 88 37 4.0 10.0 0.00 0.00 0.00 12 1022.9
20260508182004 88 13 7.0 10.0 0.00 0.00 0.00 12 1022.9
20260508181504 88 10 7.0 12.0 0.00 0.00 0.00 13 1023.0
20260508181003 88 338 3.0 9.0 0.00 0.00 0.00 13 1023.2
20260508180504 88 54 1.0 3.0 0.00 0.00 0.00 13 1023.0
20260508180004 87 33 4.0 12.0 0.00 0.00 0.00 13 1023.0
20260508175004 88 18 6.0 15.0 0.00 0.00 0.00 13 1023.0
20260508174504 87 48 4.0 9.0 0.00 0.00 0.00 13 1022.9
20260508174004 87 24 5.0 10.0 0.00 0.00 0.00 13 1022.9
20260508173503 87 24 3.0 13.0 0.00 0.00 0.00 14 1022.9
20260508173004 87 27 6.0 10.0 0.00 0.00 0.00 14 1022.9
20260508172504 87 0 5.0 10.0 0.00 0.00 0.00 13 1022.9
20260508172004 87 10 3.0 10.0 0.00 0.00 0.00 14 1022.9
20260508171504 86 351 4.0 10.0 0.00 0.00 0.00 14 1022.9
20260508171004 86 342 2.0 10.0 0.00 0.00 0.00 14 1023.0
20260508170504 86 38 5.0 10.0 0.00 0.00 0.00 14 1022.9
20260508170004 85 5 6.0 12.0 0.00 0.00 0.00 15 1023.0
20260508165504 86 21 5.0 9.0 0.00 0.00 0.00 14 1023.0
20260508165004 85 273 1.0 3.0 0.00 0.00 0.00 14 1023.0
20260508164004 85 44 1.0 2.0 0.00 0.00 0.00 12 1022.9
20260508163503 86 44 2.0 3.0 0.00 0.00 0.00 12 1022.9
20260508163004 85 74 1.0 3.0 0.00 0.00 0.00 12 1023.0
20260508162504 85 93 2.0 3.0 0.00 0.00 0.00 13 1023.0
20260508162004 84 84 1.0 6.0 0.00 0.00 0.00 13 1022.9
20260508161504 84 74 1.0 3.0 0.00 0.00 0.00 13 1023.0
20260508161003 84 109 1.0 3.0 0.00 0.00 0.00 13 1023.1
20260508160503 84 88 2.0 3.0 0.00 0.00 0.00 13 1023.1
20260508160005 84 75 1.0 3.0 0.00 0.00 0.00 13 1023.1
20260508155504 83 85 1.0 3.0 0.00 0.00 0.00 13 1023.1
20260508155003 83 76 1.0 2.0 0.00 0.00 0.00 13 1023.1
20260508154004 82 67 1.0 2.0 0.00 0.00 0.00 14 1023.1
20260508153504 82 67 1.0 2.0 0.00 0.00 0.00 13 1023.2
20260508153004 82 68 1.0 3.0 0.00 0.00 0.00 14 1023.0
20260508152504 83 129 0.0 2.0 0.00 0.00 0.00 13 1023.0
20260508151004 82 162 0.0 1.0 0.00 0.00 0.00 14 1023.0
20260508150504 81 209 0.0 1.0 0.00 0.00 0.00 14 1023.0
20260508150004 79 209 0.0 0.0 0.00 0.00 0.00 15 1022.9
20260508145504 79 209 0.0 2.0 0.00 0.00 0.00 15 1023.1
20260508144504 77 209 2.0 3.0 0.00 0.00 0.00 16 1023.1
20260508144004 76 219 1.0 3.0 0.00 0.00 0.00 16 1023.2
20260508143504 75 254 2.0 3.0 0.00 0.00 0.00 16 1023.1
20260508143004 75 249 2.0 3.0 0.00 0.00 0.00 16 1023.0
20260508142004 73 240 0.0 0.0 0.00 0.00 0.00 17 1022.9
20260508141503 72 242 0.0 0.0 0.00 0.00 0.00 17 1022.9
20260508141004 71 237 0.0 3.0 0.00 0.00 0.00 17 1022.9
20260508140504 71 221 2.0 3.0 0.00 0.00 0.00 18 1022.9
20260508140004 70 222 3.0 6.0 0.00 0.00 0.00 18 1022.8
20260508135503 69 236 3.0 7.0 0.00 0.00 0.00 18 1022.6
20260508134503 68 238 3.0 7.0 0.00 0.00 0.00 19 1022.6
20260508134003 68 250 3.0 6.0 0.00 0.00 0.00 19 1022.6
20260508133504 67 225 3.0 5.0 0.00 0.00 0.00 19 1022.5
20260508132504 66 239 0.0 0.0 0.00 0.00 0.00 20 1022.3
20260508132004 65 236 0.0 0.0 0.00 0.00 0.00 20 1022.2
20260508131504 65 227 0.0 0.0 0.00 0.00 0.00 21 1022.2
20260508131003 64 234 0.0 0.0 0.00 0.00 0.00 21 1022.2
20260508130503 64 225 0.0 0.0 0.00 0.00 0.00 22 1022.1
20260508130004 64 225 0.0 0.0 0.00 0.00 0.00 21 1022.0
20260508125504 64 225 0.0 0.0 0.00 0.00 0.00 21 1022.0
20260508125004 64 225 0.0 0.0 0.00 0.00 0.00 21 1021.9
20260508124503 64 225 0.0 0.0 0.00 0.00 0.00 21 1021.8
20260508124004 64 225 0.0 0.0 0.00 0.00 0.00 22 1021.8
20260508123504 64 225 0.0 0.0 0.00 0.00 0.00 22 1021.7
20260508122504 65 225 0.0 0.0 0.00 0.00 0.00 21 1021.6
20260508122003 65 226 0.0 0.0 0.00 0.00 0.00 21 1021.8
20260508121504 66 227 0.0 0.0 0.00 0.00 0.00 21 1021.7
20260508121004 66 230 0.0 0.0 0.00 0.00 0.00 21 1021.7
20260508120005 66 229 0.0 0.0 0.00 0.00 0.00 21 1021.6
20260508115504 66 236 0.0 0.0 0.00 0.00 0.00 21 1021.6
20260508115004 65 229 0.0 0.0 0.00 0.00 0.00 21 1021.6
20260508114503 65 227 0.0 0.0 0.00 0.00 0.00 22 1021.4
20260508114004 64 221 0.0 0.0 0.00 0.00 0.00 22 1021.4
20260508113005 64 202 0.0 0.0 0.00 0.00 0.00 23 1021.5
20260508112004 62 188 0.0 0.0 0.00 0.00 0.00 24 1021.4
20260508111003 62 188 0.0 0.0 0.00 0.00 0.00 25 1021.4
20260508110504 61 180 0.0 0.0 0.00 0.00 0.00 25 1021.5
20260508110004 62 180 0.0 0.0 0.00 0.00 0.00 25 1021.4
20260508105004 62 180 0.0 0.0 0.00 0.00 0.00 25 1021.4
20260508104004 63 180 0.0 0.0 0.00 0.00 0.00 25 1021.5
20260508103503 63 180 0.0 0.0 0.00 0.00 0.00 24 1021.5
20260508102504 64 180 0.0 0.0 0.00 0.00 0.00 24 1021.6
20260508102004 65 180 0.0 0.0 0.00 0.00 0.00 23 1021.5
20260508101504 66 204 0.0 0.0 0.00 0.00 0.00 23 1021.5
20260508101004 67 242 0.0 0.0 0.00 0.00 0.00 22 1021.4
20260508100504 69 273 0.0 0.0 0.00 0.00 0.00 21 1021.5
20260508100004 71 273 0.0 0.0 0.00 0.00 0.00 20 1021.6
20260508095504 72 273 0.0 0.0 0.00 0.00 0.00 19 1021.6
20260508094505 73 273 0.0 0.0 0.00 0.00 0.00 19 1021.6
20260508094009 73 285 0.0 0.0 0.00 0.00 0.00 19 1021.6
20260508093504 73 250 0.0 0.0 0.00 0.00 0.00 19 1021.6
20260508093004 73 253 0.0 0.0 0.00 0.00 0.00 19 1021.6
20260508092503 73 259 0.0 0.0 0.00 0.00 0.00 19 1021.7
20260508092004 73 264 0.0 0.0 0.00 0.00 0.00 20 1021.7
20260508091504 72 274 0.0 0.0 0.00 0.00 0.00 20 1021.7
20260508091004 72 259 0.0 0.0 0.00 0.00 0.00 20 1021.7
20260508090504 72 262 0.0 0.0 0.00 0.00 0.00 21 1021.8
20260508085504 72 257 0.0 0.0 0.00 0.00 0.00 21 1021.9
20260508085005 73 243 0.0 0.0 0.00 0.00 0.00 20 1022.0
20260508084004 74 298 0.0 0.0 0.00 0.00 0.00 20 1022.1
20260508083504 73 323 0.0 0.0 0.00 0.00 0.00 21 1022.1
20260508083003 73 275 0.0 0.0 0.00 0.00 0.00 21 1022.1
20260508082504 74 283 0.0 0.0 0.00 0.00 0.00 21 1022.0
20260508081504 73 306 0.0 0.0 0.00 0.00 0.00 22 1022.1
20260508081003 73 302 0.0 2.0 0.00 0.00 0.00 22 1022.1
20260508080504 74 238 0.0 0.0 0.00 0.00 0.00 22 1022.1
20260508080004 74 237 0.0 0.0 0.00 0.00 0.00 22 1022.2
20260508075505 74 232 0.0 0.0 0.00 0.00 0.00 22 1022.2
20260508075003 74 271 0.0 0.0 0.00 0.00 0.00 21 1022.3
20260508074503 74 295 0.0 0.0 0.00 0.00 0.00 22 1022.2
20260508074004 74 300 0.0 0.0 0.00 0.00 0.00 22 1022.3
20260508073504 73 277 0.0 0.0 0.00 0.00 0.00 23 1022.3
20260508073004 74 321 0.0 0.0 0.00 0.00 0.00 23 1022.3
20260508072503 73 284 0.0 0.0 0.00 0.00 0.00 23 1022.3
20260508072004 74 259 0.0 0.0 0.00 0.00 0.00 23 1022.3
20260508071504 75 175 0.0 0.0 0.00 0.00 0.00 23 1022.2
20260508071004 75 238 0.0 0.0 0.00 0.00 0.00 23 1022.2
20260508070504 76 281 0.0 0.0 0.00 0.00 0.00 23 1022.2
20260508070004 76 282 0.0 0.0 0.00 0.00 0.00 23 1022.1
20260508065504 76 277 0.0 0.0 0.00 0.00 0.00 23 1022.1
20260508065003 76 288 0.0 0.0 0.00 0.00 0.00 23 1022.2
20260508064504 76 287 0.0 0.0 0.00 0.00 0.00 23 1022.3
20260508064004 76 289 0.0 0.0 0.00 0.00 0.00 23 1022.3
20260508063503 76 288 0.0 0.0 0.00 0.00 0.00 24 1022.3
20260508063004 76 292 0.0 0.0 0.00 0.00 0.00 24 1022.4
20260508062504 76 295 0.0 0.0 0.00 0.00 0.00 24 1022.2
20260508061503 76 294 0.0 0.0 0.00 0.00 0.00 24 1022.2
20260508061003 76 284 0.0 0.0 0.00 0.00 0.00 24 1022.2
20260508060504 76 295 0.0 0.0 0.00 0.00 0.00 25 1022.1
20260508060003 76 294 0.0 0.0 0.00 0.00 0.00 25 1022.2
20260508055504 77 289 0.0 0.0 0.00 0.00 0.00 25 1022.3
20260508054505 77 290 0.0 0.0 0.00 0.00 0.00 25 1022.2
20260508053504 77 304 0.0 0.0 0.00 0.00 0.00 25 1022.2
20260508053004 77 296 0.0 0.0 0.00 0.00 0.00 25 1022.3
20260508052004 77 290 0.0 0.0 0.00 0.00 0.00 25 1022.4
20260508051504 77 296 0.0 0.0 0.00 0.00 0.00 25 1022.4
20260508051004 77 300 0.0 0.0 0.00 0.00 0.00 25 1022.4
20260508050504 77 302 0.0 0.0 0.00 0.00 0.00 25 1022.4
20260508045504 77 303 0.0 0.0 0.00 0.00 0.00 25 1022.3
20260508045005 77 306 0.0 0.0 0.00 0.00 0.00 25 1022.3
20260508044504 78 323 0.0 0.0 0.00 0.00 0.00 24 1022.3
20260508044004 78 300 0.0 0.0 0.00 0.00 0.00 24 1022.2
20260508043003 78 290 0.0 0.0 0.00 0.00 0.00 24 1022.1
20260508042503 78 294 0.0 0.0 0.00 0.00 0.00 24 1022.1
20260508042004 78 289 0.0 0.0 0.00 0.00 0.00 23 1022.1
20260508041505 78 292 0.0 0.0 0.00 0.00 0.00 22 1022.0
20260508041004 78 284 0.0 0.0 0.00 0.00 0.00 21 1022.0
20260508040503 78 298 0.0 0.0 0.00 0.00 0.00 21 1021.9
20260508035504 78 282 0.0 0.0 0.00 0.00 0.00 21 1021.9
20260508035004 78 284 0.0 0.0 0.00 0.00 0.00 21 1021.9
20260508034504 79 281 0.0 0.0 0.00 0.00 0.00 22 1021.9
20260508034004 79 288 0.0 0.0 0.00 0.00 0.00 22 1021.9
20260508033504 79 288 0.0 0.0 0.00 0.00 0.00 22 1021.9
20260508033005 78 287 0.0 0.0 0.00 0.00 0.00 23 1021.9
20260508032504 77 262 0.0 0.0 0.00 0.00 0.00 22 1021.6
20260508032004 77 244 0.0 0.0 0.00 0.00 0.00 22 1021.6
20260508031003 77 247 0.0 0.0 0.00 0.00 0.00 21 1021.4
20260508030504 77 247 0.0 0.0 0.00 0.00 0.00 21 1021.3
20260508030004 78 218 0.0 0.0 0.00 0.00 0.00 21 1021.2
20260508025504 78 242 0.0 0.0 0.00 0.00 0.00 21 1021.3
20260508025004 79 240 0.0 0.0 0.00 0.00 0.00 20 1021.2
20260508024505 80 239 0.0 0.0 0.00 0.00 0.00 20 1021.2
20260508024004 80 206 0.0 0.0 0.00 0.00 0.00 19 1021.2
20260508023504 82 255 0.0 0.0 0.00 0.00 0.00 18 1021.0
20260508023004 83 201 0.0 0.0 0.00 0.00 0.00 17 1021.0
20260508022004 85 295 0.0 9.0 0.00 0.00 0.00 13 1021.0
20260508021504 85 315 0.0 3.0 0.00 0.00 0.00 13 1020.9
20260508021004 85 320 0.0 3.0 0.00 0.00 0.00 13 1020.9
20260508020504 85 327 3.0 8.0 0.00 0.00 0.00 12 1020.8
20260508020004 86 338 6.0 10.0 0.00 0.00 0.00 12 1020.8
20260508015504 86 353 5.0 10.0 0.00 0.00 0.00 12 1020.8
20260508015004 86 334 5.0 9.0 0.00 0.00 0.00 12 1020.8
20260508014505 86 322 5.0 10.0 0.00 0.00 0.00 12 1020.8
20260508014004 87 331 6.0 9.0 0.00 0.00 0.00 12 1020.8
20260508013504 87 329 6.0 10.0 0.00 0.00 0.00 12 1020.7
20260508013004 87 316 6.0 12.0 0.00 0.00 0.00 12 1020.8
20260508012504 87 319 6.0 9.0 0.00 0.00 0.00 12 1020.8
20260508012004 87 307 5.0 8.0 0.00 0.00 0.00 13 1020.8
20260508011504 87 318 4.0 9.0 0.00 0.00 0.00 13 1020.9
20260508010005 88 345 10.0 14.0 0.00 0.00 0.00 13 1020.8
20260508005504 88 318 7.0 12.0 0.00 0.00 0.00 13 1020.9
20260508005004 88 3 6.0 12.0 0.00 0.00 0.00 13 1021.0
20260508004504 88 7 3.0 9.0 0.00 0.00 0.00 13 1021.0
20260508004003 88 13 6.0 13.0 0.00 0.00 0.00 13 1021.0
20260508003503 89 7 6.0 12.0 0.00 0.00 0.00 13 1021.0
20260508003005 89 351 7.0 13.0 0.00 0.00 0.00 13 1021.1
20260508002004 89 336 4.0 8.0 0.00 0.00 0.00 13 1020.9
20260508001505 89 349 7.0 12.0 0.00 0.00 0.00 13 1021.0
20260508000505 88 0 7.0 13.0 0.00 0.00 0.00 14 1021.0
20260508000004 89 35 5.0 10.0 0.00 0.00 0.00 14 1021.0
20260507235504 89 56 6.0 12.0 0.00 0.00 0.00 14 1021.0
20260507235004 89 29 6.0 12.0 0.00 0.00 0.00 14 1021.1
20260507234504 89 224 1.0 3.0 0.00 0.00 0.00 14 1021.1
20260507234004 88 270 2.0 9.0 0.00 0.00 0.00 14 1021.1
20260507233004 89 327 6.0 12.0 0.00 0.00 0.00 14 1021.2
20260507232004 89 323 5.0 10.0 0.00 0.00 0.00 14 1021.2
20260507231004 88 324 6.0 18.0 0.00 0.00 0.00 14 1021.2
20260507230504 88 127 4.0 12.0 0.00 0.00 0.00 14 1021.4
20260507230004 88 339 9.0 12.0 0.00 0.00 0.00 14 1021.4
20260507225503 88 318 1.0 10.0 0.00 0.00 0.00 14 1021.4
20260507225003 88 294 8.0 13.0 0.00 0.00 0.00 14 1021.4
20260507224503 89 1 7.0 13.0 0.00 0.00 0.00 14 1021.5
20260507223503 88 318 5.0 12.0 0.00 0.00 0.00 14 1021.5
20260507223003 89 331 5.0 13.0 0.00 0.00 0.00 14 1021.7
20260507222503 89 61 3.0 7.0 0.00 0.00 0.00 14 1021.7
20260507222003 88 88 2.0 8.0 0.00 0.00 0.00 15 1021.7
20260507221503 88 17 5.0 12.0 0.00 0.00 0.00 14 1021.9
20260507221003 88 343 7.0 12.0 0.00 0.00 0.00 14 1022.0
20260507220503 88 18 6.0 10.0 0.00 0.00 0.00 14 1022.1
20260507220002 87 322 7.0 12.0 0.00 0.00 0.00 14 1022.1
20260507215502 88 342 9.0 13.0 0.00 0.00 0.00 13 1022.3
20260507215002 88 269 1.0 5.0 0.00 0.00 0.00 14 1022.3
20260507214502 87 84 0.0 3.0 0.00 0.00 0.00 14 1022.3
20260507214004 87 53 1.0 6.0 0.00 0.00 0.00 13 1022.7
20260507213503 87 27 6.0 12.0 0.00 0.00 0.00 13 1022.7
20260507212502 88 33 8.0 15.0 0.00 0.00 0.00 13 1022.6
20260507211503 88 74 2.0 8.0 0.00 0.00 0.00 13 1022.7
20260507210503 87 61 1.0 8.0 0.00 0.00 0.00 14 1023.0
20260507210003 87 335 4.0 9.0 0.00 0.00 0.00 13 1023.0
20260507205503 87 81 3.0 6.0 0.00 0.00 0.00 13 1023.0
20260507205003 87 89 4.0 13.0 0.00 0.00 0.00 13 1023.1
20260507204503 87 35 5.0 12.0 0.00 0.00 0.00 13 1023.1
20260507203503 86 339 5.0 10.0 0.00 0.00 0.00 13 1023.2
20260507203003 87 20 7.0 13.0 0.00 0.00 0.00 13 1023.2
20260507202503 87 22 6.0 13.0 0.00 0.00 0.00 13 1023.3
20260507202002 86 96 3.0 6.0 0.00 0.00 0.00 14 1023.4
20260507201003 86 316 3.0 10.0 0.00 0.00 0.00 14 1023.6
20260507200502 85 347 6.0 12.0 0.00 0.00 0.00 14 1023.7
20260507200003 86 41 5.0 12.0 0.00 0.00 0.00 15 1023.7
20260507195503 87 30 6.0 12.0 0.00 0.00 0.00 14 1023.8
20260507195003 86 80 5.0 9.0 0.00 0.00 0.00 14 1024.0
20260507194503 86 72 3.0 9.0 0.00 0.00 0.00 14 1024.0
20260507193503 86 97 3.0 9.0 0.00 0.00 0.00 15 1024.0
20260507193003 85 14 2.0 8.0 0.00 0.00 0.00 15 1024.1
20260507191003 84 44 3.0 10.0 0.00 0.00 0.00 15 1024.2
20260507190503 85 333 3.0 8.0 0.00 0.00 0.00 15 1024.4